Tracking 23758 objects as of 28-Oct-2021
HD Live streaming from Space Station
objects crossing your sky now

SL-18 R/B

Track SL-18 R/B now!
10-day predictions


NORAD ID: 26703
Int'l Code: 2001-007B
Perigee: 581.8 km
Apogee: 585.3 km
Inclination: 97.7 °
Period: 96.2 minutes
Semi major axis: 6954 km
RCS: 2.4311 m2 (large)
Launch date: February 20, 2001
Source: Commonwealth of Independent States (former USSR) (CIS)
Launch site: Svobodny, Russia (SVOB)

Pakistan's microsatellite for development of surveillance capability.
Note: This is a ROCKET BODY
aabbcc
Your satellite tracking list
Your tracking list is empty




NASA's NSSDC Master Catalog

Two Line Element Set (TLE):
1 26703U 01007B   21300.54430492  .00000074  00000-0  11394-4 0  9996
2 26703  97.6941 308.1654 0002478 226.5784 133.5232 14.96922493407007
Source of the keplerian elements: AFSPC